This demonstration page uses our WeatherBlox Daily Observations layout. Learn more.

Left ArrowRight Arrow

Hourly Observations for October 26, 2021

Temp ( °F °C ) Dew Point ( °F °C ) Humidity (%) Winds ( mph kmh ) Pressure ( in mb ) Visibility ( mi km ) Precip ( " mm )
12:18 am 00:18 Partly Cloudy 42 5.6 41 5 96 96 SE 12 19 30.00 1016 10 16 0.00 0.00
12:27 am 00:27 Mostly Cloudy 42 5.6 41 5 96 96 SE 12 19 29.99 1016 9 14 0.00 0.00
12:39 am 00:39 Cloudy 42 5.6 41 5 96 96 SE 13 20 29.98 1015 7 11 0.00 0.00
12:53 am 00:53 Cloudy with Mist and Fog 42 5.6 42 5.6 100 100 SE 9 15 29.96 1015 3 5 0.00 0.00
1:21 am 01:21 Cloudy with Mist and Fog 42 5.6 42 5.6 100 100 SE 13 20 29.97 1015 2 3 0.00 0.00
1:45 am 01:45 Cloudy with Mist and Fog 43 6.1 43 6.1 100 100 SSE 13 20 29.96 1014 1 1 0.00 0.00
1:53 am 01:53 Mostly Cloudy with Mist and Fog 43 6.1 43 6.1 100 100 SSE 12 19 29.94 1014 1 1 0.00 0.00
2:53 am 02:53 Mostly Cloudy with Fog 44 6.7 44 6.7 100 100 SSE 15 24 29.92 1013 1 1 0.00 0.00
3:53 am 03:53 Mostly Cloudy with Mist and Fog 45 7.2 45 7.2 100 100 SSE 16 26 29.89 1012 1 2 0.00 0.00
4:11 am 04:11 Cloudy with Mist and Fog 45 7.2 45 7.2 100 100 SSE 15 24 29.90 1012 3 5 0.00 0.00
4:53 am 04:53 Cloudy 45 7.2 45 7.2 100 100 SSE 14 22 29.87 1011 8 13 0.00 0.00
5:53 am 05:53 Cloudy 45 7.2 45 7.2 100 100 SSE 17 28 29.83 1010 8 13 0.00 0.00
6:53 am 06:53 Cloudy 46 7.8 44 6.7 93 93 SSE 14 22 29.82 1010 9 14 0.00 0.00
7:34 am 07:34 Cloudy 46 7.8 44 6.7 93 93 SSE 13 20 29.81 1010 10 16 0.00 0.00
7:53 am 07:53 Cloudy 46 7.8 44 6.7 93 93 SE 15 24 29.79 1009 10 16 0.00 0.00
8:53 am 08:53 Cloudy 46 7.8 45 7.2 96 96 SSE 13 20 29.78 1008 10 16 0.00 0.00
9:41 am 09:41 Cloudy 48 8.9 45 7.2 89 89 SSE 15 24 29.76 1008 10 16 0.00 0.00
9:49 am 09:49 Cloudy 48 9 45 7 87 87 SSE 17 28 29.75 1007 10 16 0.00 0.00
9:53 am 09:53 Cloudy 48 8.9 45 7.2 89 89 SSE 16 26 29.74 1007 10 16 0.00 0.00
10:14 am 10:14 Cloudy with Mist and Fog 48 8.9 45 7.2 89 89 SSE 16 26 29.74 1007 6 10 0.00 0.00
10:30 am 10:30 Cloudy with Mist and Fog 47 8.3 46 7.8 97 97 SSE 16 26 29.73 1007 3 4 0.00 0.00
10:53 am 10:53 Cloudy with Mist and Fog 48 8.9 47 8.3 96 96 SSE 16 26 29.72 1007 3 4 0.00 0.00
11:04 am 11:04 Cloudy with Mist and Fog 48 8.9 47 8.3 96 96 SSE 20 31 29.72 1006 2 3 0.00 0.00
11:13 am 11:13 Cloudy with Mist and Fog 48 8.9 47 8.3 96 96 SSE 21 33 29.72 1006 2 3 0.00 0.00
11:22 am 11:22 Cloudy with Mist and Fog 48 9 48 9 100 100 SSE 17 28 29.71 1006 2 3 0.00 0.00
11:34 am 11:34 Cloudy with Mist and Fog 48 8.9 48 8.9 100 100 SSE 17 28 29.71 1006 2 3 0.00 0.00
11:53 am 11:53 Cloudy with Light Rain 48 8.9 48 8.9 100 100 SSE 17 28 29.69 1005 2 3 0.00 0.00
12:33 pm 12:33 Cloudy with Mist and Fog 48 9 48 9 100 100 SSE 15 24 29.68 1005 2 3 0.00 0.00
12:53 pm 12:53 Cloudy with Mist and Fog 50 10 50 10 100 100 SSE 16 26 29.66 1005 2 3 0.00 0.00
1:28 pm 13:28 Cloudy with Mist and Fog 52 11.1 52 11.1 100 100 SSE 20 31 29.62 1003 3 5 0.00 0.00
1:53 pm 13:53 Cloudy 53 11.7 52 11.1 96 96 SSE 15 24 29.61 1003 8 13 0.00 0.00
2:06 pm 14:06 Cloudy 54 12.2 52 11.1 93 93 SSE 17 28 29.59 1002 10 16 0.00 0.00
2:41 pm 14:41 Cloudy 56 13.3 53 11.7 90 90 SSE 14 22 29.55 1001 10 16 0.00 0.00
2:53 pm 14:53 Cloudy 57 13.9 53 11.7 87 87 SSE 16 26 29.57 1001 10 16 0.00 0.00
3:53 pm 15:53 Cloudy 58 14.4 54 12.2 87 87 SSE 17 28 29.54 1000 10 16 0.00 0.00
4:37 pm 16:37 Cloudy with Mist and Fog 57 13.9 55 12.8 93 93 SE 16 26 29.52 1000 3 5 0.00 0.00
4:53 pm 16:53 Cloudy with Mist and Fog 57 13.9 56 13.3 96 96 SSE 18 30 29.52 1000 2 3 0.00 0.00
5:00 pm 17:00 Cloudy with Mist and Fog 57 13.9 56 13.3 96 96 SE 20 31 29.50 999 2 3 0.00 0.00
5:05 pm 17:05 Cloudy with Mist and Fog 57 13.9 56 13.3 96 96 SSE 21 33 29.50 999 2 3 0.00 0.00
5:38 pm 17:38 Cloudy with Mist and Fog 57 13.9 57 13.9 100 100 SE 18 30 29.49 999 2 3 0.00 0.00
5:46 pm 17:46 Cloudy with Mist and Fog 58 14.4 57 13.9 97 97 SSE 17 28 29.50 999 2 3 0.00 0.00
5:53 pm 17:53 Cloudy with Mist and Fog 58 14.4 57 13.9 97 97 SSE 15 24 29.52 1000 2 3 0.00 0.00
6:42 pm 18:42 Cloudy with Mist and Fog 58 14.4 57 13.9 97 97 SE 15 24 29.51 999 3 5 0.00 0.00
6:53 pm 18:53 Cloudy with Mist and Fog 58 14.4 58 14.4 100 100 SE 14 22 29.53 1000 3 5 0.00 0.00
7:37 pm 19:37 Cloudy 58 14.4 58 14.4 100 100 SE 16 26 29.51 999 8 13 0.00 0.00
7:53 pm 19:53 Cloudy 58 14.4 57 13.9 97 97 SE 18 30 29.52 1000 9 14 0.00 0.00
8:08 pm 20:08 Cloudy 58 14.4 57 13.9 97 97 SE 16 26 29.50 999 10 16 0.00 0.00
8:45 pm 20:45 Cloudy 58 14.4 56 13.3 93 93 ESE 17 28 29.47 998 10 16 0.00 0.00
8:53 pm 20:53 Cloudy 58 14.4 56 13.3 93 93 ESE 20 31 29.48 998 10 16 0.00 0.00
9:44 pm 21:44 Cloudy 57 13.9 55 12.8 93 93 SE 16 26 29.48 998 10 16 0.00 0.00
9:53 pm 21:53 Cloudy 57 13.9 55 12.8 93 93 SE 14 22 29.49 999 10 16 0.00 0.00
10:46 pm 22:46 Cloudy 57 14 55 13 94 94 SE 13 20 29.51 999 10 16 0.00 0.00
10:53 pm 22:53 Cloudy 57 13.9 55 12.8 93 93 SSE 13 20 29.54 1000 10 16 0.00 0.00
11:06 pm 23:06 Cloudy with Light Rain 57 13.9 55 12.8 93 93 WSW 8 13 29.57 1001 5 8 0.01 0.25
11:13 pm 23:13 Cloudy with Thunderstorms 57 13.9 55 12.8 93 93 WNW 6 9 29.58 1002 3 5 0.04 1.02
11:17 pm 23:17 Cloudy with Strong Thunderstorms 56 13.3 56 13.3 100 100 Calm 29.59 1002 2 3 0.08 2.03
11:30 pm 23:30 Cloudy with Thunderstorms 55 13 55 13 100 100 ESE 8 13 29.57 1001 2 3 0.00 0.00
11:36 pm 23:36 Cloudy with Thunderstorms 56 13.3 55 12.8 97 97 E 6 9 29.55 1001 6 10 0.21 5.33
11:41 pm 23:41 Cloudy with Light Rain 56 13.3 56 13.3 100 100 ENE 3 6 29.54 1000 9 14 0.21 5.33
11:48 pm 23:48 Cloudy with Nearby Thunderstorms 55 13 55 13 100 100 ESE 6 9 29.56 1001 5 8 0.24 6.10
11:53 pm 23:53 Cloudy with Thunderstorms 56 13.3 56 13.3 100 100 ESE 9 15 29.59 1002 4 6 0.26 6.60

Powered by AerisWeather